Location: Street
(51.1247°N, 2.7429°W)
Time: 09:27:23
(UTC+01:00)

PCSat - Pass Details

Date: 29 March 2023
Orbit: 783 x 794 km, 67.1° (Epoch: 29 May)

Event Time Altitude Azimuth Distance (km) Brightness Sun altitude
Rises 20:25:09 0° 285° (WNW) 3,288 15.4 -8.0°
Reaches altitude 10° 20:28:28 10° 306° (NW) 2,363 13.4 -8.5°
Maximum altitude 20:31:54 17° 346° (NNW) 1,934 12.0 -9.0°
Drops below altitude 10° 20:35:22 10° 25° (NNE) 2,370 12.0 -9.5°
Sets 20:38:42 0° 46° (NE) 3,303 12.5 -10.0°
